Main page
METAR-TAF:

METAR-TAF

Airports :

Cascavel Airport

Cascavel, Paraná, Brazil

latitude: 25-00-08S, longitude: 53-30-07W, elevation: 754 m

Current weather observation

The report was made 7 hours and 7 minutes ago, at 23:00 UTC
Wind 4 kt from the South/Southeast
Temperature 26°C
Humidity 70%
Pressure 1012 hPa
Visibility 10 km or more
Few clouds at a height of 5000 ft, Towering cumulus.

METAR: SBCA 072300Z 15004KT 9999 FEW050TCU 26/20 Q1012

Time: 04:07 (06:07 UTC)


TAF: missing

Weather observations and forecasts of more than 4000 airports (METAR and TAF reports).

The available stations are represented by yellow and red dots on the map.

Hover mouse over dot to see the name of the station.

Then click to see weather observations and forecasts.

To change the map : click on the green buttons with a black cross to zoom in, on the green button with a dash to zoom out, or on the green arrows for adjacent maps.


METAR-TAF: